Location: Unspecified
(48.1170°N, 0.0000°E)
Time: 02:26:26
(UTC+00:00)

M-CUBED/EXP-1 PRIME - Visible Passes

Search period start: 22 August 2019 00:00
Search period end: 01 September 2019 00:00
Orbit: 430 x 670 km, 101.7° (Epoch: 21 August)

Date Brightness Start Highest point End Pass type
(mag) Time Alt. Az. Time Alt. Az. Time Alt. Az.
22 Aug ? 00:32:06 10° NE 00:33:57 17° ENE 00:33:57 17° ENE visible
22 Aug ? 02:05:32 10° N 02:09:39 50° WNW 02:09:39 50° WNW visible
23 Aug ? 00:28:00 10° NE 00:29:23 14° ENE 00:29:23 14° ENE visible
23 Aug ? 02:01:07 10° NNE 02:05:05 56° NW 02:05:05 56° NW visible
24 Aug ? 00:23:59 10° ENE 00:24:49 12° ENE 00:24:49 12° ENE visible
24 Aug ? 01:56:43 10° NNE 02:00:31 60° NNW 02:00:31 60° NNW visible
24 Aug ? 03:33:24 10° NW 03:34:23 11° NW 03:35:21 10° WNW visible
25 Aug ? 00:20:10 10° ENE 00:20:15 10° ENE 00:20:15 10° ENE visible
25 Aug ? 01:52:19 10° NNE 01:55:57 60° N 01:55:57 60° N visible
25 Aug ? 03:28:29 10° NNW 03:30:05 12° NW 03:31:38 10° WNW visible
26 Aug ? 01:47:56 10° NNE 01:51:22 56° NNE 01:51:22 56° NNE visible
26 Aug ? 03:23:45 10° NNW 03:25:45 13° NW 03:27:04 12° WNW visible
27 Aug ? 01:43:34 10° NNE 01:46:47 50° NNE 01:46:47 50° NNE visible
27 Aug ? 03:19:05 10° NNW 03:21:26 15° NW 03:22:29 14° WNW visible
28 Aug ? 01:39:12 10° NNE 01:42:13 43° NE 01:42:13 43° NE visible
28 Aug ? 03:14:29 10° NNW 03:17:06 16° NW 03:17:54 15° WNW visible
29 Aug ? 01:34:51 10° NNE 01:37:38 37° NE 01:37:38 37° NE visible
29 Aug ? 03:09:55 10° N 03:12:46 18° NW 03:13:19 18° WNW visible
30 Aug ? 01:30:31 10° NNE 01:33:03 32° NE 01:33:03 32° NE visible
30 Aug ? 03:05:23 10° N 03:08:25 20° NW 03:08:44 20° WNW visible
31 Aug ? 01:26:12 10° NNE 01:28:28 27° NE 01:28:28 27° NE visible
31 Aug ? 03:00:51 10° N 03:04:04 22° WNW 03:04:09 22° WNW visible
